FW6381 Weather Reports


Display with metric or nautical units.
time (UTC)temp
F
wind
direction
speed
MPH
gust
MPH
rain 1hr
in
rain 24hr
in
rain mn
in
humidity
%
barometer
mb
20260507141503 49 158 3.0 10.0 0.00 0.00 0.00 69 1012.5
20260507141003 48 156 2.0 8.0 0.00 0.01 0.00 71 1012.5
20260507140505 48 143 3.0 8.0 0.00 0.01 0.00 71 1012.6
20260507140006 48 113 3.0 8.0 0.00 0.01 0.00 71 1012.5
20260507135506 47 104 3.0 8.0 0.00 0.02 0.00 72 1012.6
20260507135003 47 112 3.0 8.0 0.00 0.02 0.00 75 1012.7
20260507134714 46 120 3.0 8.0 0.00 0.02 0.00 75 1012.7
20260507134005 46 129 2.0 5.0 0.00 0.02 0.00 78 1012.7
20260507133503 45 126 1.0 6.0 0.00 0.02 0.00 80 1012.8
20260507133003 45 118 2.0 6.0 0.00 0.02 0.00 81 1012.9
20260507132504 44 110 2.0 5.0 0.00 0.02 0.00 82 1012.9
20260507132003 44 107 2.0 8.0 0.00 0.02 0.00 83 1012.9
20260507131504 43 105 4.0 9.0 0.00 0.02 0.00 84 1013.0
20260507131003 42 98 4.0 9.0 0.00 0.02 0.00 86 1013.0
20260507130503 42 89 2.0 9.0 0.00 0.02 0.00 87 1012.9
20260507130213 41 77 2.0 9.0 0.00 0.02 0.00 88 1013.0
20260507125503 40 65 3.0 8.0 0.00 0.02 0.00 91 1012.9
20260507125213 40 62 3.0 8.0 0.00 0.02 0.00 92 1013.0
20260507124503 40 52 3.0 6.0 0.00 0.02 0.00 94 1013.1
20260507124003 40 38 3.0 6.0 0.00 0.03 0.00 95 1013.0
20260507123503 39 25 3.0 5.0 0.00 0.03 0.00 95 1013.1
20260507123213 39 23 3.0 5.0 0.00 0.03 0.00 96 1013.0
20260507122714 40 21 2.0 5.0 0.00 0.03 0.00 98 1013.1
20260507122212 39 20 1.0 5.0 0.00 0.05 0.00 98 1013.1
20260507121503 40 19 1.0 5.0 0.00 0.05 0.00 98 1013.1
20260507121003 40 19 1.0 5.0 0.00 0.05 0.00 98 1013.1
20260507120503 40 18 0.0 4.0 0.00 0.05 0.00 98 1013.2
20260507120005 41 0 0.0 0.0 0.00 0.05 0.00 98 1013.3
20260507115504 41 0 0.0 0.0 0.00 0.05 0.00 98 1013.4
20260507115003 41 18 0.0 0.0 0.00 0.05 0.00 98 1013.3
20260507114503 41 18 1.0 4.0 0.00 0.06 0.00 98 1013.4
20260507114003 41 18 1.0 4.0 0.00 0.06 0.00 98 1013.4
20260507113503 41 18 2.0 5.0 0.00 0.06 0.00 98 1013.5
20260507113004 41 19 2.0 5.0 0.00 0.06 0.00 98 1013.5
20260507112503 40 19 1.0 4.0 0.00 0.07 0.00 98 1013.3
20260507112004 40 19 0.0 1.0 0.00 0.07 0.00 98 1013.2
20260507111503 40 0 0.0 0.0 0.00 0.07 0.00 98 1013.1
20260507111003 40 0 0.0 0.0 0.00 0.07 0.00 98 1013.0
20260507110505 40 19 1.0 4.0 0.00 0.08 0.00 98 1012.7
20260507110005 39 19 1.0 4.0 0.00 0.08 0.00 98 1012.5
20260507105503 39 19 0.0 4.0 0.00 0.08 0.00 98 1012.6
20260507105003 39 0 0.0 0.0 0.00 0.09 0.00 98 1012.5
20260507104505 39 0 0.0 0.0 0.00 0.09 0.00 98 1012.5
20260507104003 38 0 0.0 0.0 0.00 0.09 0.00 98 1012.4
20260507103503 38 0 0.0 0.0 0.00 0.09 0.00 96 1012.5
20260507103005 38 0 0.0 0.0 0.00 0.09 0.00 96 1012.4
20260507102503 38 0 0.0 0.0 0.00 0.09 0.00 96 1012.3
20260507102003 38 0 0.0 0.0 0.00 0.09 0.00 96 1012.4
20260507101503 38 0 0.0 0.0 0.00 0.10 0.00 96 1012.4
20260507101005 38 0 0.0 0.0 0.00 0.10 0.00 96 1012.4
20260507100503 37 0 0.0 0.0 0.00 0.12 0.00 96 1012.4
20260507100214 37 0 0.0 0.0 0.00 0.12 0.00 96 1012.4
20260507095504 37 0 0.0 0.0 0.00 0.12 0.00 96 1012.4
20260507095213 37 0 0.0 0.0 0.00 0.13 0.00 96 1012.3
20260507094505 37 0 0.0 0.0 0.00 0.13 0.00 96 1012.3
20260507094003 37 0 0.0 0.0 0.00 0.14 0.00 95 1012.3
20260507093503 37 0 0.0 0.0 0.00 0.14 0.00 95 1012.3
20260507093003 37 352 0.0 3.0 0.00 0.15 0.00 95 1012.4
20260507092503 37 352 0.0 3.0 0.00 0.15 0.00 96 1012.4
20260507092213 38 352 0.0 3.0 0.00 0.15 0.00 96 1012.4
20260507091505 38 352 0.0 3.0 0.00 0.16 0.00 95 1012.4
20260507091003 38 352 0.0 3.0 0.00 0.16 0.00 95 1012.4
20260507090505 38 352 0.0 3.0 0.00 0.17 0.00 95 1012.4
20260507090004 38 352 0.0 3.0 0.00 0.18 0.00 95 1012.4
20260507085503 38 0 0.0 0.0 0.00 0.18 0.00 95 1012.5
20260507085003 38 0 0.0 0.0 0.00 0.20 0.00 95 1012.3
20260507084714 38 0 0.0 0.0 0.00 0.20 0.00 95 1012.3
20260507084003 38 0 0.0 0.0 0.00 0.21 0.00 95 1012.3
20260507083503 38 0 0.0 0.0 0.00 0.21 0.00 95 1012.3
20260507083004 39 0 0.0 0.0 0.00 0.22 0.00 95 1012.5
20260507082503 39 0 0.0 0.0 0.00 0.23 0.00 95 1012.3
20260507082005 39 0 0.0 0.0 0.00 0.23 0.00 95 1012.3
20260507081503 39 0 0.0 0.0 0.00 0.23 0.00 95 1012.4
20260507081003 39 0 0.0 0.0 0.00 0.24 0.00 95 1012.3
20260507080714 39 0 0.0 0.0 0.00 0.24 0.00 95 1012.3
20260507080005 38 0 0.0 0.0 0.00 0.25 0.00 95 1012.4
20260507075503 38 0 0.0 1.0 0.00 0.25 0.00 95 1012.4
20260507075003 38 352 0.0 3.0 0.00 0.25 0.00 95 1012.4
20260507074503 39 352 0.0 5.0 0.00 0.25 0.00 95 1012.2
20260507074003 39 352 0.0 5.0 0.00 0.26 0.00 95 1012.3
20260507073503 39 352 0.0 5.0 0.00 0.26 0.00 95 1012.3
20260507073003 39 0 0.0 0.0 0.00 0.28 0.00 95 1012.2
20260507072503 39 0 0.0 0.0 0.00 0.28 0.00 94 1012.0
20260507072004 39 0 0.0 0.0 0.00 0.28 0.00 95 1012.1
20260507071504 39 0 0.0 0.0 0.00 0.28 0.00 95 1012.3
20260507071212 40 0 0.0 0.0 0.00 0.29 0.00 94 1012.2
20260507070505 40 352 1.0 4.0 0.00 0.29 0.00 95 1012.2
20260507070006 40 352 2.0 4.0 0.00 0.30 0.00 95 1012.2
20260507065503 40 352 1.0 4.0 0.00 0.30 0.00 94 1012.2
20260507065004 40 352 0.0 4.0 0.00 0.31 0.00 95 1012.3
20260507064503 40 0 0.0 0.0 0.00 0.32 0.00 94 1012.5
20260507064003 41 0 0.0 0.0 0.00 0.32 0.00 94 1012.6
20260507063503 41 0 0.0 0.0 0.00 0.33 0.00 94 1012.7
20260507063003 41 0 0.0 0.0 0.00 0.33 0.00 94 1012.6
20260507062504 41 0 0.0 0.0 0.00 0.33 0.00 94 1012.7
20260507062214 42 0 0.0 0.0 0.00 0.33 0.00 94 1012.7
20260507061503 42 0 0.0 0.0 0.00 0.34 0.00 94 1012.8
20260507061005 42 0 0.0 0.0 0.00 0.34 0.00 94 1012.6
20260507060503 42 0 0.0 0.0 0.00 0.34 0.00 94 1012.6
20260507060003 42 0 0.0 0.0 0.00 0.34 0.00 94 1012.7
20260507055713 42 0 0.0 0.0 0.00 0.34 0.00 94 1012.7
20260507055005 42 0 0.0 0.0 0.00 0.36 0.00 94 1012.8
20260507054504 42 0 0.0 0.0 0.00 0.36 0.00 94 1012.9
20260507054214 42 0 0.0 0.0 0.00 0.37 0.00 94 1012.9
20260507053713 42 0 0.0 0.0 0.00 0.37 0.00 94 1012.8
20260507053003 42 0 0.0 0.0 0.00 0.38 0.00 94 1013.1
20260507052504 43 0 0.0 0.0 0.00 0.39 0.00 94 1013.0
20260507052005 43 0 0.0 0.0 0.00 0.39 0.00 94 1013.1
20260507051503 43 0 0.0 0.0 0.00 0.40 0.00 94 1013.1
20260507051003 43 0 0.0 0.0 0.00 0.41 0.00 94 1013.1
20260507050503 43 352 0.0 1.0 0.00 0.43 0.00 95 1013.0
20260507050006 43 352 0.0 3.0 0.00 0.44 0.00 95 1013.2
20260507045503 43 352 1.0 3.0 0.00 0.46 0.00 95 1013.2
20260507045216 43 352 1.0 3.0 0.00 0.46 0.00 95 1013.2
20260507044503 43 352 0.0 3.0 0.00 0.48 0.00 95 1013.2
20260507044003 43 352 1.0 3.0 0.00 0.49 0.00 95 1013.2
20260507043504 43 352 1.0 4.0 0.00 0.51 0.00 95 1013.2
20260507043003 43 352 1.0 4.0 0.00 0.53 0.00 95 1013.3
20260507042503 43 352 0.0 3.0 0.00 0.53 0.00 95 1013.2
20260507042004 43 352 1.0 3.0 0.00 0.54 0.00 95 1013.2
20260507041503 43 352 1.0 5.0 0.00 0.55 0.00 95 1013.1
20260507041004 43 352 1.0 5.0 0.00 0.55 0.00 95 1013.2
20260507040714 43 352 1.0 4.0 0.00 0.56 0.00 95 1013.2
20260507040003 43 352 1.0 5.0 0.00 0.56 0.00 95 1013.1
20260507035503 43 352 1.0 5.0 0.00 0.56 0.56 95 1013.1
20260507035213 43 352 0.0 5.0 0.00 0.57 0.56 95 1013.1
20260507034503 43 0 0.0 0.0 0.00 0.57 0.56 95 1013.1
20260507034003 43 355 0.0 3.0 0.00 0.57 0.56 95 1013.1
20260507033505 43 352 1.0 3.0 0.00 0.57 0.56 95 1013.1
20260507033005 43 352 1.0 4.0 0.00 0.57 0.56 95 1013.0
20260507032503 43 352 2.0 4.0 0.00 0.57 0.56 95 1012.9
20260507032003 43 352 1.0 5.0 0.00 0.57 0.56 95 1013.0
20260507031714 43 352 1.0 5.0 0.00 0.57 0.56 95 1013.0
20260507031215 43 352 1.0 3.0 0.00 0.59 0.56 95 1013.1
20260507030504 43 352 2.0 4.0 0.00 0.60 0.56 95 1013.1
20260507030003 43 352 1.0 4.0 0.00 0.60 0.56 95 1013.3
20260507025503 43 352 1.0 4.0 0.00 0.61 0.56 95 1013.2
20260507025215 43 352 1.0 4.0 0.00 0.62 0.56 95 1013.1
20260507024503 43 352 1.0 4.0 0.00 0.62 0.56 95 1013.0
20260507024003 43 352 0.0 1.0 0.00 0.63 0.56 95 1013.0
20260507023503 43 0 0.0 0.0 0.00 0.64 0.56 95 1013.0
20260507023005 43 352 0.0 1.0 0.00 0.64 0.56 95 1013.1
20260507022503 43 352 1.0 3.0 0.00 0.66 0.56 95 1013.1
20260507022003 43 352 1.0 3.0 0.00 0.66 0.56 95 1013.0
20260507021503 43 352 0.0 3.0 0.00 0.66 0.56 95 1013.1
20260507021003 43 352 0.0 3.0 0.00 0.66 0.56 95 1013.1
20260507020503 43 0 0.0 1.0 0.00 0.67 0.56 95 1013.2
20260507020004 43 352 1.0 3.0 0.00 0.67 0.56 95 1013.4
20260507015713 43 352 1.0 3.0 0.00 0.67 0.56 95 1013.5
20260507015004 43 352 1.0 4.0 0.00 0.67 0.56 94 1013.4
20260507014503 43 352 1.0 4.0 0.00 0.67 0.56 94 1013.5
20260507014003 43 352 1.0 4.0 0.00 0.67 0.56 94 1013.4
20260507013503 43 352 1.0 3.0 0.00 0.67 0.56 94 1013.3
20260507013003 43 352 1.0 3.0 0.00 0.67 0.56 94 1013.4
20260507012503 43 352 0.0 1.0 0.00 0.67 0.56 94 1013.3
20260507012005 43 352 0.0 1.0 0.00 0.68 0.56 94 1013.1
20260507011503 43 352 0.0 1.0 0.00 0.68 0.56 94 1013.1
20260507011005 43 352 0.0 3.0 0.00 0.68 0.56 94 1013.2
20260507010713 43 352 0.0 3.0 0.00 0.68 0.56 94 1013.2
20260507010004 43 0 0.0 0.0 0.00 0.69 0.56 94 1013.1
20260507005503 43 0 0.0 0.0 0.00 0.69 0.56 94 1012.9
20260507005214 43 0 0.0 0.0 0.00 0.69 0.56 94 1013.0
20260507004503 43 0 0.0 0.0 0.00 0.71 0.56 94 1012.9
20260507004005 43 0 0.0 0.0 0.00 0.71 0.56 94 1012.9
20260507003508 43 0 0.0 0.0 0.00 0.74 0.56 94 1012.9
20260507003005 43 0 0.0 0.0 0.00 0.75 0.56 95 1012.7
20260507002713 43 352 0.0 1.0 0.00 0.76 0.56 94 1012.7
20260507002005 43 352 0.0 3.0 0.00 0.78 0.56 94 1012.6
20260507001504 43 352 0.0 3.0 0.00 0.79 0.56 94 1012.5
20260507001003 43 352 1.0 3.0 0.00 0.80 0.56 94 1012.5
20260507000504 43 352 1.0 5.0 0.00 0.82 0.56 95 1012.5
20260507000214 43 352 1.0 5.0 0.00 0.83 0.56 95 1012.5
20260506235503 43 352 0.0 4.0 0.00 0.85 0.56 95 1012.4
20260506235214 43 352 0.0 3.0 0.00 0.86 0.56 95 1012.4
20260506234715 43 352 1.0 4.0 0.00 0.87 0.56 95 1012.4
20260506234214 43 352 1.0 4.0 0.00 0.90 0.56 95 1012.3
20260506233713 43 352 1.0 5.0 0.00 0.90 0.56 95 1012.3
20260506233005 43 352 1.0 5.0 0.00 0.92 0.56 95 1012.4
20260506232503 43 352 1.0 5.0 0.00 0.92 0.56 95 1012.4
20260506232003 43 352 2.0 5.0 0.00 0.94 0.56 95 1012.4
20260506231503 43 352 1.0 5.0 0.00 0.94 0.56 95 1012.3
20260506231003 43 352 2.0 5.0 0.00 0.95 0.56 95 1012.2
20260506230712 43 352 2.0 6.0 0.00 0.97 0.56 95 1012.2
20260506230003 43 353 3.0 6.0 0.00 0.98 0.56 95 1012.1
20260506225503 43 341 4.0 10.0 0.00 0.99 0.56 95 1011.9
20260506225003 43 332 4.0 12.0 0.00 0.99 0.56 95 1012.0
20260506224503 43 333 4.0 12.0 0.00 1.00 0.56 95 1011.9
20260506224005 42 337 5.0 12.0 0.00 1.00 0.56 95 1011.8
20260506223503 43 336 6.0 12.0 0.00 1.01 0.56 95 1011.6
20260506223003 43 344 6.0 12.0 0.00 1.02 0.56 95 1011.6
20260506222503 43 349 5.0 12.0 0.00 1.03 0.56 95 1011.6
20260506222003 43 336 6.0 13.0 0.00 1.03 0.56 95 1011.5
20260506221504 42 339 8.0 14.0 0.00 1.05 0.56 95 1011.5
20260506221003 43 344 8.0 14.0 0.00 1.06 0.56 95 1011.4
20260506220503 43 341 8.0 14.0 0.00 1.07 0.56 94 1011.4
20260506220005 43 337 7.0 14.0 0.00 1.08 0.56 95 1011.3
20260506215714 43 335 7.0 14.0 0.00 1.08 0.56 94 1011.3
20260506215213 43 333 7.0 17.0 0.00 1.09 0.56 94 1011.4
20260506214714 43 332 7.0 17.0 0.00 1.10 0.56 94 1011.3
20260506214213 44 327 5.0 14.0 0.00 1.12 0.56 94 1011.3
20260506213505 44 314 6.0 15.0 0.00 1.14 0.56 93 1011.2
20260506213215 44 310 7.0 17.0 0.00 1.15 0.56 93 1011.2
20260506212714 44 310 8.0 17.0 0.00 1.16 0.56 93 1011.1
20260506212213 44 315 9.0 18.0 0.00 1.18 0.56 93 1011.1
20260506211503 45 310 9.0 18.0 0.00 1.22 0.56 92 1010.8
20260506211006 46 297 10.0 22.0 0.00 1.24 0.56 91 1010.6
20260506210503 46 297 11.0 23.0 0.00 1.25 0.56 91 1010.6
20260506210003 47 300 11.0 23.0 0.00 1.26 0.56 90 1010.5
20260506205714 47 304 10.0 23.0 0.00 1.26 0.56 89 1010.5
20260506205003 49 304 9.0 23.0 0.00 1.28 0.56 88 1010.2
20260506204503 50 276 9.0 23.0 0.00 1.28 0.56 87 1010.2
20260506204003 50 230 10.0 22.0 0.00 1.29 0.56 86 1010.1
20260506203505 50 228 11.0 22.0 0.00 1.29 0.56 84 1010.0
20260506203003 50 231 11.0 23.0 0.00 1.29 0.56 84 1010.0
20260506202505 51 225 11.0 23.0 0.00 1.29 0.56 84 1010.0
20260506202004 51 225 10.0 22.0 0.00 1.29 0.56 84 1009.9
20260506201713 51 225 9.0 22.0 0.00 1.29 0.56 84 1009.9
20260506201003 51 232 6.0 15.0 0.00 1.29 0.56 86 1009.9
20260506200713 51 233 7.0 15.0 0.00 1.29 0.56 86 1010.0
20260506200005 51 236 5.0 12.0 0.00 1.29 0.56 87 1009.9
20260506195505 51 236 6.0 13.0 0.00 1.29 0.56 87 1009.9
20260506195003 50 233 7.0 13.0 0.00 1.29 0.56 87 1009.8
20260506194503 50 226 6.0 13.0 0.00 1.29 0.56 88 1009.9
20260506194003 50 203 4.0 13.0 0.00 1.29 0.56 89 1009.9
20260506193713 50 167 3.0 12.0 0.00 1.29 0.56 89 1009.9
20260506193003 50 126 2.0 5.0 0.00 1.29 0.56 89 1010.0
20260506192504 50 125 1.0 5.0 0.00 1.29 0.56 88 1009.8
20260506192003 50 117 1.0 5.0 0.00 1.29 0.56 88 1009.8
20260506191505 50 116 1.0 5.0 0.00 1.29 0.56 88 1009.8
20260506191003 50 0 0.0 0.0 0.00 1.29 0.56 88 1009.9
20260506190504 50 0 0.0 0.0 0.00 1.29 0.56 89 1009.8
20260506190004 50 92 0.0 1.0 0.00 1.29 0.56 89 1009.7
20260506185713 50 92 1.0 4.0 0.00 1.29 0.56 89 1009.7
20260506185005 50 91 1.0 4.0 0.00 1.29 0.56 90 1009.7
20260506184503 50 90 0.0 4.0 0.00 1.29 0.56 90 1009.7
20260506184003 50 90 1.0 4.0 0.00 1.29 0.56 91 1009.7
20260506183505 50 90 2.0 5.0 0.00 1.29 0.56 91 1009.7
20260506183004 50 90 2.0 5.0 0.00 1.29 0.56 91 1009.6
20260506182503 50 90 1.0 5.0 0.00 1.29 0.56 92 1009.8
20260506182003 50 90 0.0 4.0 0.00 1.29 0.56 92 1009.8
20260506181713 50 90 1.0 4.0 0.00 1.29 0.56 92 1009.8
20260506181005 49 90 1.0 4.0 0.00 1.29 0.56 93 1009.8
20260506180503 50 90 2.0 4.0 0.00 1.29 0.56 94 1009.9
20260506180004 49 90 1.0 4.0 0.00 1.29 0.56 94 1010.1
20260506175505 49 86 0.0 1.0 0.00 1.29 0.56 94 1009.9
20260506175213 49 86 0.0 1.0 0.00 1.29 0.56 94 1009.9
20260506174714 49 86 0.0 4.0 0.00 1.29 0.56 94 1009.8
20260506174003 49 86 0.0 3.0 0.00 1.29 0.56 95 1010.0
20260506173505 48 86 1.0 4.0 0.00 1.29 0.56 95 1010.1
20260506173005 48 86 2.0 5.0 0.00 1.29 0.56 95 1010.0
20260506172503 48 85 2.0 5.0 0.00 1.29 0.56 95 1010.0
20260506172003 48 84 1.0 5.0 0.00 1.29 0.56 95 1010.0
20260506171505 48 84 0.0 3.0 0.00 1.29 0.56 95 1009.9
20260506171215 48 84 0.0 3.0 0.00 1.29 0.56 95 1009.9
20260506170503 48 84 1.0 4.0 0.00 1.29 0.56 96 1010.0
20260506170003 48 84 1.0 5.0 0.00 1.29 0.56 96 1010.1
20260506165503 48 85 1.0 5.0 0.00 1.29 0.56 96 1010.1
20260506165005 48 85 0.0 3.0 0.00 1.29 0.56 96 1009.9
20260506164503 48 85 0.0 3.0 0.00 1.29 0.56 96 1009.9
20260506164003 48 85 1.0 3.0 0.00 1.29 0.56 96 1009.9
20260506163503 47 85 2.0 5.0 0.00 1.29 0.56 98 1009.9
20260506163213 47 85 2.0 5.0 0.00 1.29 0.56 98 1009.8
20260506162714 47 85 1.0 5.0 0.00 1.29 0.56 98 1009.6
20260506162003 47 0 0.0 0.0 0.00 1.29 0.56 98 1009.7
20260506161503 47 86 1.0 3.0 0.00 1.29 0.56 98 1009.9
20260506161005 47 86 2.0 8.0 0.00 1.29 0.56 98 1009.8
20260506160505 47 86 2.0 8.0 0.00 1.29 0.56 98 1009.9
20260506160003 47 87 0.0 4.0 0.00 1.29 0.56 98 1009.8
20260506155503 47 87 0.0 3.0 0.00 1.29 0.56 98 1009.6
20260506155003 47 87 1.0 4.0 0.00 1.29 0.56 98 1009.8
20260506154503 47 87 2.0 4.0 0.00 1.29 0.56 99 1009.7
20260506154213 47 87 2.0 4.0 0.00 1.29 0.56 99 1009.7
20260506153503 47 87 1.0 4.0 0.00 1.29 0.56 99 1009.7
20260506153215 47 87 0.0 3.0 0.00 1.29 0.56 99 1009.7
20260506152505 47 87 1.0 4.0 0.00 1.29 0.56 99 1009.6
20260506152213 47 87 2.0 5.0 0.00 1.29 0.56 99 1009.5
20260506151716 47 87 2.0 5.0 0.00 1.29 0.56 99 1009.5
20260506151003 47 88 2.0 5.0 0.01 1.29 0.56 99 1009.4
20260506150503 46 88 1.0 5.0 0.01 1.29 0.56 99 1009.4
20260506150003 46 88 2.0 5.0 0.01 1.29 0.56 99 1009.5
20260506145503 46 89 2.0 5.0 0.02 1.29 0.56 99 1009.5
20260506145005 46 89 3.0 5.0 0.02 1.29 0.56 99 1009.4
20260506144503 46 89 3.0 8.0 0.02 1.29 0.56 99 1009.3
20260506144214 46 89 3.0 8.0 0.02 1.29 0.56 99 1009.2
20260506143503 46 88 2.0 5.0 0.02 1.29 0.56 99 1009.2
20260506143003 46 88 1.0 5.0 0.02 1.29 0.56 100 1009.2
20260506142713 46 88 1.0 4.0 0.02 1.29 0.56 99 1009.3